Overview Statistics Trail Chart Weather Telemetry Raw packets
 

This is the latest recevied weather packets stored in our database for station/object KC5DAQ-26. If no packets are shown the sender has not sent any weather packets the latest 10 day(s).

<< 353 354 355 356 357 358 359 >>
Time Temp. Humidity Pressure Rain* Wind** Luminosity Snow
1788202719 32.22° C 75% 1018.8 hPa 0 mm - 267 W/m² -
1788202659 32.22° C 74% 1018.7 hPa 0 mm - 223 W/m² -
1788202598 32.22° C 72% 1018.8 hPa 0 mm - 211 W/m² -
1788202539 32.22° C 74% 1018.7 hPa 0 mm - 204 W/m² -
1788202479 32.22° C 73% 1018.7 hPa 0 mm - 197 W/m² -
1788202420 32.22° C 72% 1018.7 hPa 0 mm - 188 W/m² -
1788202358 32.22° C 70% 1018.7 hPa 0 mm - 181 W/m² -
1788202298 32.78° C 71% 1018.7 hPa 0 mm - 178 W/m² -
1788202239 32.78° C 70% 1018.8 hPa 0 mm - 174 W/m² -
1788202178 32.78° C 69% 1018.7 hPa 0 mm - 172 W/m² -
1788202118 32.78° C 68% 1018.9 hPa 0 mm - 172 W/m² -
1788202059 32.78° C 67% 1018.9 hPa 0 mm - 174 W/m² -
1788201998 32.78° C 67% 1018.9 hPa 0 mm - 174 W/m² -
1788201938 32.78° C 67% 1018.9 hPa 0 mm - 171 W/m² -
1788201878 32.78° C 67% 1018.9 hPa 0 mm - 169 W/m² -
1788201821 32.78° C 69% 1018.9 hPa 0 mm - 171 W/m² -
1788201758 32.78° C 68% 1018.9 hPa 0 mm - 172 W/m² -
1788201699 33.33° C 66% 1018.9 hPa 0 mm - 174 W/m² -
1788201639 33.33° C 67% 1018.9 hPa 0 mm - 174 W/m² -
1788201579 33.33° C 67% 1018.9 hPa 0 mm - 190 W/m² -
1788201517 32.78° C 68% 1018.9 hPa 0 mm - 215 W/m² -
1788201459 32.78° C 66% 1018.8 hPa 0 mm - 220 W/m² -
1788201400 32.78° C 67% 1018.9 hPa 0 mm - 208 W/m² -
1788201339 32.78° C 68% 1018.9 hPa 0 mm - 222 W/m² -
1788201278 32.78° C 69% 1018.9 hPa 0 mm - 273 W/m² -

* Rain latest hour (hover to see other rain measurements)
** Current wind speed in m/s (hover to see current wind gust speed)